Flag for U.S.A. Weather past 2 weeks in Lynchburg, Virginia, U.S.A.

Now
74 °F

Sunny.


Feels Like: 74 °F
Forecast: 68 / 83 °F
Wind: 5 mph from South

Location: Lynchburg Regional Airport

Current Time: Jul 22, 2014 at 9:45:08 AM

Latest Report: Jul 22, 2014 at 8:54 AM


Visibility: 10 mi

Pressure: 30.20 "Hg

Humidity: 82%

Dew point: 68 °F

Location of LynchburgLocation

Historic Weather in Lynchburg — Graph

°F

Lynchburg temperature yesterday

Maximum temperature yesterday: 79 °F (at 4:03 PM)
Minimum temperature yesterday: 67 °F (at 12:54 AM)
Average temperature yesterday: 73 °F

Past Weeks' High & Low Weather Summary

 TemperatureHumidityPressure
High92 °F (Jul 8, 1:54 PM)100% (Jul 9, 3:54 AM)30.24 "Hg (Jul 9, 3:54 AM)
Low57 °F (Jul 17, 5:54 AM)28% (Jul 17, 4:54 PM)29.76 "Hg (Jul 15, 3:54 PM)
Average74 °F74%30.04 "Hg
* Reported Jul 7 7:54 AM — Jul 22 7:54 AM, Lynchburg, Weather by CustomWeather, © 2014

Note: Actual official high and low records may vary slightly from our data, if they occured in-between our weather recording intervals... More about our weather records

Advertising

Lynchburg weather history for previous 24 hours

 ConditionsComfort  
Time TempWeatherWind HumidityBarometerVisibility
7:54 AM
Jul 22
72 °FPartly sunny.No wind93%30.19 "Hg9 mi
6:54 AM71 °FMostly cloudy.No wind96%30.18 "Hg7 mi
5:54 AM70 °FFog.No wind97%30.16 "Hg6 mi
4:54 AM71 °FMostly cloudy.No wind96%30.15 "Hg7 mi
3:54 AM71 °FFog.3 mph96%30.15 "Hg5 mi
2:54 AM71 °FLow clouds.5 mph96%30.16 "Hg7 mi
1:54 AM71 °FLow clouds.5 mph96%30.17 "Hg9 mi
12:54 AM71 °FMostly cloudy.No wind96%30.17 "Hg10 mi
11:54 PM
Jul 21
72 °FMostly cloudy.6 mph93%30.17 "Hg10 mi
10:54 PM72 °FPartly cloudy.5 mph93%30.17 "Hg10 mi
9:54 PM71 °FClear.No wind96%30.17 "Hg10 mi
8:54 PM72 °FSunny.5 mph93%30.15 "Hg10 mi
7:54 PM76 °FBroken clouds.6 mph82%30.14 "Hg10 mi
6:54 PM77 °FScattered clouds.7 mph79%30.14 "Hg10 mi
5:54 PM78 °FPartly sunny.5 mph76%30.14 "Hg10 mi
5:01 PM79 °FPartly sunny.5 mph74%30.17 "Hg10 mi
4:03 PM79 °FPartly sunny.3 mph74%30.17 "Hg10 mi
3:54 PM78 °FScattered clouds.3 mph74%30.14 "Hg10 mi
2:54 PM78 °FPartly sunny.6 mph74%30.14 "Hg10 mi
1:54 PM75 °FMostly cloudy.6 mph82%30.16 "Hg10 mi
12:54 PM74 °FMostly cloudy.6 mph82%30.17 "Hg10 mi
11:54 AM76 °FOvercast.7 mph77%30.18 "Hg10 mi
10:54 AM72 °FMostly cloudy.8 mph91%30.18 "Hg9 mi
9:54 AM70 °FLight rain. Fog.5 mph93%30.17 "Hg3 mi
Weather by CustomWeather, © 2014

See weather overviewHow to use our weather pages